Herzlich willkommen!

Am freundlichen Bodensee-Flugplatz zwischen Schwarzwald, Rhein und Alpen.

Aktuelles

16.12.2018
Winterpause
Liebe Flieger, in der Zeit vom 17.Dez.2018 bis 31.Jan.2019 ist der Flugplatz Konstanz von der Betriebspflicht befreit. Es gilt eine PPR-Regelung. Telefonisch sind wir unter 0172-7411981 erreichbar. Wir wünschen Allen frohe Weihnachten und einen guten Rutsch ins neue Jahr.
— Flugleitung EDTZ

Live am Platz

Die Bilder unserer Webcams werden alle 5 Minuten aktualisiert.

Sonnenaufgang:

07:01 UTC / 08:01 Lokal

Sonnenuntergang:

16:07 UTC / 17:07 Lokal

METAR (20.01.2019 19:50 UTC):

EDNY 201950Z VRB02KT 9999 FEW059 BKN070 M01/M04 Q1015
VFR

TAF (20.01.2019 17:00 UTC):

TAF EDNY 201700Z 2018/2118 VRB03KT 9999 BKN030 TEMPO 2022/2110 4000 -SN BR BKN008

Alle Angaben unverbindlich und ohne Gewähr. Zeiten genähert.

Für den Verkehrslandeplatz Konstanz werden keine offiziellen Wetterinformationen ausgegeben. Daher werden zur Orientierung Daten des nahegelegenen Flughafens Friedrichshafen dargestellt.

Flugwetterdaten zur Verfügung gestellt von wippich.aero.